Weather History for Defiance, OH

Change the Weather History Date:

Saturday, September 21, 2013

  Actual Average Record
Temperature  
Mean Temperature 62 °F -  
Max Temperature 72 °F 73 °F 92 °F (1941)
Min Temperature 52 °F 51 °F 1 °F (2014)
Degree Days  
Heating Degree Days 3    
Growing Degree Days 12 (Base 50)    
Moisture  
Dew Point 55 °F    
Average Humidity 76    
Maximum Humidity 94    
Minimum Humidity 39    
Precipitation  
Precipitation 0.10 in - - ()
Sea Level Pressure  
Sea Level Pressure 29.78 in    
Wind  
Wind Speed 5 mph (NW)    
Max Wind Speed 17 mph    
Max Gust Speed 23 mph    
Visibility 9 miles    
Events Rain    
Averages and records for this station are not official NWS values.
T = Trace of Precipitation, MM = Missing Value Source: NWS Daily Summary

Daily Weather History Graph

Daily Weather History Graph

Search for Another Location

Airport:

Trip Planner

Search our weather history database for the weather conditions in past years. The results will help you decide how hot, cold, wet, or windy it might be!

Date:

Astronomy

Sep. 21, 2013 Rise Set
Actual Time 7:24 AM EDT 7:36 PM EDT
Civil Twilight 6:56 AM EDT 8:03 PM EDT
Nautical Twilight 6:24 AM EDT 8:36 PM EDT
Astronomical Twilight 5:51 AM EDT 9:08 PM EDT
Moon 8:44 PM EDT (9/21) 9:43 AM EDT (9/21)
Length of Visible Light 13h 06m
Length of Day
12h 11m
Waning Gibbous, 94% of the Moon is Illuminated
Sep 21
Waning Gibbous
Sep 26
Last Quarter
Oct 4
New
Oct 11
First Quarter
Oct 18
Full

Hourly Weather History & Observations

Time (EDT) Temp. Dew Point Humidity Pressure Visibility Wind Dir Wind Speed Gust Speed Precip Events Conditions
12:01 AM 68.0 °F 64.4 °F 88% 29.78 in 4.0 mi SW 4.6 mph - 0.01 in Rain Rain
12:08 AM 68.0 °F 64.4 °F 88% 29.78 in 4.0 mi SW 5.8 mph - 0.02 in Rain Rain
12:13 AM 66.2 °F 64.4 °F 94% 29.78 in 3.0 mi SW 4.6 mph - 0.04 in Rain Rain
12:53 AM 66.9 °F 64.9 °F 93% 29.76 in 5.0 mi SW 4.6 mph - 0.10 in Rain Light Rain
1:16 AM 66.2 °F 64.4 °F 94% 29.77 in 7.0 mi WSW 3.5 mph - 0.00 in Rain Light Rain
1:23 AM 66.2 °F 64.4 °F 94% 29.76 in 8.0 mi Calm Calm - 0.00 in Rain Light Rain
1:30 AM 66.2 °F 64.4 °F 94% 29.77 in 9.0 mi Calm Calm - 0.00 in Rain Light Rain
1:53 AM 66.9 °F 63.0 °F 87% 29.75 in 8.0 mi Calm Calm - 0.00 in Rain Light Rain
2:53 AM 64.9 °F 61.0 °F 87% 29.75 in 10.0 mi Calm Calm - 0.00 in   Overcast
3:53 AM 64.0 °F 60.1 °F 87% 29.73 in 10.0 mi Calm Calm - N/A   Overcast
4:17 AM 64.4 °F 60.8 °F 88% 29.74 in 10.0 mi Calm Calm - N/A   Overcast
4:46 AM 62.6 °F 59.0 °F 88% 29.74 in 10.0 mi Variable 3.5 mph - N/A   Overcast
4:53 AM 63.0 °F 57.9 °F 84% 29.73 in 10.0 mi Variable 3.5 mph - N/A   Mostly Cloudy
5:53 AM 61.0 °F 57.0 °F 87% 29.73 in 10.0 mi Calm Calm - N/A   Partly Cloudy
6:53 AM 60.1 °F 57.0 °F 90% 29.73 in 10.0 mi Variable 3.5 mph - N/A   Partly Cloudy
7:53 AM 59.0 °F 55.9 °F 90% 29.73 in 10.0 mi Calm Calm - N/A   Clear
8:53 AM 60.1 °F 55.9 °F 86% 29.75 in 10.0 mi Variable 3.5 mph - N/A   Clear
9:53 AM 63.0 °F 57.0 °F 81% 29.76 in 10.0 mi Variable 4.6 mph - N/A   Partly Cloudy
10:19 AM 62.6 °F 57.2 °F 82% 29.77 in 10.0 mi NW 12.7 mph 17.3 mph N/A   Mostly Cloudy
10:53 AM 64.0 °F 55.9 °F 75% 29.77 in 10.0 mi NW 10.4 mph 18.4 mph N/A   Overcast
11:32 AM 66.2 °F 55.4 °F 68% 29.78 in 10.0 mi NNW 13.8 mph - N/A   Mostly Cloudy
11:53 AM 66.0 °F 54.0 °F 65% 29.78 in 10.0 mi North 17.3 mph 20.7 mph N/A   Mostly Cloudy
12:53 PM 69.1 °F 51.1 °F 53% 29.78 in 10.0 mi NW 13.8 mph 21.9 mph N/A   Partly Cloudy
1:53 PM 70.0 °F 48.0 °F 46% 29.78 in 10.0 mi NW 12.7 mph 18.4 mph N/A   Partly Cloudy
2:53 PM 71.1 °F 45.0 °F 39% 29.77 in 10.0 mi Variable 5.8 mph 19.6 mph N/A   Partly Cloudy
3:53 PM 70.0 °F 45.0 °F 41% 29.78 in 10.0 mi NNW 16.1 mph 20.7 mph N/A   Mostly Cloudy
4:53 PM 70.0 °F 45.0 °F 41% 29.78 in 10.0 mi NW 15.0 mph 21.9 mph N/A   Mostly Cloudy
5:53 PM 66.9 °F 45.0 °F 45% 29.80 in 10.0 mi NW 13.8 mph - N/A   Mostly Cloudy
6:53 PM 64.0 °F 45.0 °F 50% 29.82 in 10.0 mi NNW 13.8 mph 23.0 mph N/A   Partly Cloudy
7:53 PM 61.0 °F 46.9 °F 60% 29.84 in 10.0 mi NNW 10.4 mph - N/A   Overcast
8:53 PM 55.9 °F 48.0 °F 75% 29.86 in 10.0 mi NNW 8.1 mph - N/A   Clear
9:53 PM 55.0 °F 46.9 °F 74% 29.88 in 10.0 mi NW 6.9 mph - N/A   Clear
10:53 PM 53.1 °F 46.9 °F 80% 29.89 in 10.0 mi NNW 5.8 mph - N/A   Clear
11:53 PM 52.0 °F 46.9 °F 83% 29.90 in 10.0 mi NW 6.9 mph - N/A   Clear